Waarnemingen

Advertentie
Mijn weer
Storlien-Visjovalen A, Zweden (2207): temperatuur & dauwpunt: 18.10.2018 00:00:00 - 24.10.2018 00:00:00 (CEST)Storlien-Visjovalen A, Zweden (2207): windsnelheid & windstoten: 18.10.2018 00:00:00 - 24.10.2018 00:00:00 (CEST)Storlien-Visjovalen A, Zweden (2207): windrichting: 18.10.2018 00:00:00 - 24.10.2018 00:00:00 (CEST)Storlien-Visjovalen A, Zweden (2207): luchtdruk: 18.10.2018 00:00:00 - 24.10.2018 00:00:00 (CEST)Storlien-Visjovalen A, Zweden (2207): zicht: 18.10.2018 00:00:00 - 24.10.2018 00:00:00 (CEST)Storlien-Visjovalen A, Zweden (2207): neerslag: 18.10.2018 00:00:00 - 24.10.2018 00:00:00 (CEST)
Datum & Tijd tt [°C] td [°C] ff [km/u] ff [kn] fx [km/u] fx [kn] dd ppp [hPa] vv [km] rr [mm]
24.10.2018 00:00:00 -0,8 -1,2 18 10 41 22 W 1001,0 0,7 0,3
23.10.2018 23:00:00 -0,8 -1,2 23 12 41 22 WNW 1000,1 0,3 0,4
23.10.2018 22:00:00 -0,9 -1,5 20 11 32 18 W 999,8 0,9 0,5
23.10.2018 21:00:00 -1,1 -1,8 15 8 43 23 WNW 999,1 1,0 0,5
23.10.2018 20:00:00 -1,2 -2,0 16 9 44 24 W 998,3 4,3 0,0
23.10.2018 19:00:00 -1,4 -2,1 23 12 44 24 WNW 997,8 4,4 0,1
23.10.2018 18:00:00 -1,7 -2,5 17 9 44 24 WNW 997,5 50 0,0
23.10.2018 17:00:00 -1,2 -1,5 17 9 47 25 WNW 997,1 10 0,1
23.10.2018 16:00:00 -1,5 -1,8 26 14 47 25 WNW 996,5 0,2 0,4
23.10.2018 15:00:00 -0,6 -1,3 25 14 46 25 WNW 995,6 2,7 0,2
23.10.2018 14:00:00 -0,1 -0,5 20 11 39 21 WNW 994,7 2,4 0,3
23.10.2018 13:00:00 -0,2 -0,5 22 12 39 21 WNW 994,3 5 0,6
23.10.2018 12:00:00 0,2 -0,4 19 10 33 18 WNW 994,0 10 0,9
23.10.2018 11:00:00 0,4 -0,5 13 7 25 14 W 993,2 3,0 0,1
23.10.2018 10:00:00 0,2 -0,4 12 7 23 12 W 992,8 4,7 0,3
23.10.2018 09:00:00 -0,6 -1,0 3 1 5 3 ZZO 993,0 20 0,1
23.10.2018 08:00:00 -0,6 -0,9 3 1 5 3 NW 992,7 4,5 0,2
23.10.2018 07:00:00 -0,4 -0,7 0 0 10 6 N 992,3 2,7 1,0
23.10.2018 06:00:00 -0,2 -0,6 3 2 17 9 NW 992,3 1,9 0,1
23.10.2018 05:00:00 0,3 -0,4 6 3 25 14 ZW 992,3 2,6 0,2
23.10.2018 04:00:00 0,4 -0,6 8 5 25 14 ZW 992,8 3,1 0,2
23.10.2018 03:00:00 0,3 -1,3 5 3 23 13 ZZO 993,2 50 0,0
23.10.2018 02:00:00 0,3 -1,6 7 4 26 14 Z 993,8 50 0,0
23.10.2018 01:00:00 0,3 -1,9 13 7 26 14 ZZW 995,1 50 0,0
23.10.2018 00:00:00 0,0 -2,4 12 6 22 12 ZZW 997,0 50 0,0
22.10.2018 23:00:00 -2,0 -3,3 4 2 18 10 WZW 998,7 50 0,0
22.10.2018 22:00:00 -0,8 -2,2 7 4 25 14 ZW 1000,0 50 0,0
22.10.2018 21:00:00 -1,0 -2,3 12 7 33 18 ZW 1001,9 50 0,0
22.10.2018 20:00:00 -0,3 -1,4 11 6 37 20 ZZW 1003,7 50 0,0
22.10.2018 19:00:00 0,2 -0,9 19 11 41 22 WZW 1005,0 38 0,0
22.10.2018 18:00:00 0,2 -0,4 20 11 45 24 W 1006,3 32 0,0
22.10.2018 17:00:00 0,4 0,0 21 12 53 29 W 1006,7 1,6 0,3
22.10.2018 16:00:00 0,3 -0,4 24 13 53 29 W 1007,3 3,1 0,2
22.10.2018 15:00:00 0,0 -0,4 23 13 52 28 W 1007,2 0,6 1,2
22.10.2018 14:00:00 0,7 -0,2 22 12 52 28 W 1006,5 4,5 0,2
22.10.2018 13:00:00 0,9 -0,1 23 12 50 27 W 1005,5 6 0,1
22.10.2018 12:00:00 0,9 -0,1 24 13 47 26 W 1005,2 23 0,1
22.10.2018 11:00:00 0,4 0,0 21 11 41 22 WZW 1005,4 11 0,3
22.10.2018 10:00:00 -0,2 -0,5 18 10 42 23 WZW 1005,3 0,6 0,5
22.10.2018 09:00:00 0,0 -0,7 16 9 42 23 WZW 1005,0 4,7 0,3
22.10.2018 08:00:00 0,5 -1,1 16 8 37 20 WZW 1004,7 2,9 0,2
22.10.2018 07:00:00 0,7 -1,5 13 7 48 26 W 1004,6 3,9 0,0
22.10.2018 06:00:00 1,1 -2,8 18 10 48 26 W 1004,8 50 0,0
22.10.2018 05:00:00 1,2 -2,0 16 9 42 23 W 1005,0 50 0,0
22.10.2018 04:00:00 1,4 -0,8 9 5 17 9 WZW 1005,1 50 0,0
22.10.2018 03:00:00 0,8 -1,8 8 5 25 13 ZZW 1005,4 50 0,0
22.10.2018 02:00:00 0,8 -1,4 11 6 36 19 W 1005,7 50 0,0
22.10.2018 01:00:00 1,2 -0,9 12 7 38 20 W 1005,8 43 0,0
22.10.2018 00:00:00 1,9 -0,4 20 11 38 20 W 1005,9 50 0,0
21.10.2018 23:00:00 2,2 0,1 22 12 35 19 W 1006,0 50 0,0
21.10.2018 22:00:00 2,7 1,7 16 8 31 17 W 1005,9 50 0,1
21.10.2018 21:00:00 2,3 1,6 7 4 35 19 WZW 1006,1 12 0,9
21.10.2018 20:00:00 2,9 2,0 19 11 35 19 W 1006,1 9 1,4
21.10.2018 19:00:00 3,9 2,7 14 7 28 15 W 1005,8 13 0,7
21.10.2018 18:00:00 4,5 3,3 12 6 26 14 WNW 1005,9 21 0,6
21.10.2018 17:00:00 5,1 3,8 5 3 35 19 ZW 1006,1 39 0,3
21.10.2018 16:00:00 4,7 3,5 13 7 35 19 W 1007,1 38 0,8
21.10.2018 15:00:00 4,8 3,5 16 9 36 19 W 1007,2 13 1,0
21.10.2018 14:00:00 5,5 3,8 18 10 36 19 W 1008,0 15 0,4
21.10.2018 13:00:00 6,2 5,3 9 5 21 12 NW 1008,6 17 0,8
21.10.2018 12:00:00 6,7 5,6 8 4 21 12 ZZW 1008,5 9 1,0
21.10.2018 11:00:00 6,6 5,5 8 4 21 11 ZZW 1009,2 14 0,7
21.10.2018 10:00:00 6,0 4,8 10 5 28 15 ZZW 1009,3 13 0,4
21.10.2018 09:00:00 5,7 4,2 16 8 28 15 Z 1008,8 13 0,0
21.10.2018 08:00:00 5,8 4,3 13 7 26 14 ZZW 1008,9 25 0,0
21.10.2018 07:00:00 5,9 4,4 13 7 34 18 ZW 1009,1 42 0,1
21.10.2018 06:00:00 5,8 4,0 13 7 39 21 ZW 1010,3 34 0,0
21.10.2018 05:00:00 5,6 4,1 16 9 41 22 ZZW 1009,7 28 0,6
21.10.2018 04:00:00 5,8 3,8 22 12 48 26 ZZW 1010,3 50 0,1
21.10.2018 03:00:00 5,1 3,6 22 12 48 26 ZZW 1010,4 20 0,7
21.10.2018 02:00:00 4,6 2,8 19 10 43 23 ZZW 1011,4 26 1,6
21.10.2018 01:00:00 4,4 2,3 20 11 47 26 ZZW 1012,2 16 1,6
21.10.2018 00:00:00 4,5 1,7 23 12 47 26 ZZW 1013,0 15 0,5
20.10.2018 23:00:00 5,8 -0,3 22 12 46 25 ZZW 1014,1 50 0,0
20.10.2018 22:00:00 5,6 -0,5 14 8 30 16 Z 1014,9 50 0,0
20.10.2018 21:00:00 5,2 -0,6 11 6 26 14 ZZW 1016,1 50 0,0
20.10.2018 20:00:00 3,9 0,1 8 5 19 10 ZZO 1017,5 50 0,0
20.10.2018 19:00:00 4,4 0,4 6 3 19 10 ZZW 1018,3 50 0,0
20.10.2018 18:00:00 4,8 0,7 8 4 14 8 ZZW 1019,2 50 0,0
20.10.2018 17:00:00 5,4 1,3 6 3 13 7 Z 1019,5 50 0,0
20.10.2018 16:00:00 6,0 1,3 4 2 15 8 ZZW 1019,7 50 0,0
20.10.2018 15:00:00 6,0 1,3 4 2 19 10 WZW 1020,1 50 0,0
20.10.2018 14:00:00 5,5 2,3 5 3 19 10 ZW 1020,5 50 0,0
20.10.2018 13:00:00 4,9 2,3 5 3 26 14 WZW 1021,0 28 0,0
20.10.2018 12:00:00 4,5 2,5 8 4 26 14 W 1021,3 32 0,1
20.10.2018 11:00:00 5,0 2,9 11 6 19 10 W 1020,8 50 0,3
20.10.2018 10:00:00 4,2 2,5 8 4 19 11 WZW 1020,3 10 0,0
20.10.2018 09:00:00 3,9 2,4 7 4 19 11 WZW 1019,7 37 0,0
20.10.2018 08:00:00 4,1 2,3 10 5 18 10 W 1019,4 44 0,0
20.10.2018 07:00:00 3,1 1,6 5 3 13 7 ZZW 1019,0 13 0,2
20.10.2018 06:00:00 3,5 1,1 3 2 19 11 W 1018,8 28 0,0
20.10.2018 05:00:00 4,0 0,7 3 2 23 12 WZW 1018,1 50 0,0
20.10.2018 04:00:00 4,1 1,0 10 5 25 14 ZW 1017,7 45 0,0
20.10.2018 03:00:00 4,4 0,7 13 7 30 16 ZZW 1017,3 50 0,0
20.10.2018 02:00:00 4,7 -0,1 11 6 30 16 ZZW 1016,7 50 0,0
20.10.2018 01:00:00 4,6 -0,6 14 7 28 15 ZZW 1016,7 50 0,0
20.10.2018 00:00:00 4,8 -0,8 13 7 25 13 ZZW 1016,6 50 0,0
19.10.2018 23:00:00 5,1 -0,7 10 5 20 11 ZZW 1016,6 50 0,0
19.10.2018 22:00:00 2,7 1,4 2 1 8 5 N 1017,6 50 0,0
19.10.2018 21:00:00 2,6 1,3 4 2 8 5 NNW 1017,9 50 0,0
19.10.2018 20:00:00 3,0 1,4 3 2 7 4 W 1017,7 50 0,0
19.10.2018 19:00:00 3,9 1,4 5 3 11 6 ZO 1018,0 50 0,0
19.10.2018 18:00:00 4,5 1,4 5 3 16 9 OZO 1018,3 50 0,0
19.10.2018 17:00:00 5,1 0,7 6 3 16 9 OZO 1018,5 50 0,0
19.10.2018 16:00:00 5,6 0,8 5 3 17 9 ZW 1018,9 50 0,0
19.10.2018 15:00:00 5,5 2,0 7 4 18 10 ZZW 1019,7 50 0,0
19.10.2018 14:00:00 5,6 2,4 8 4 18 10 Z 1020,2 50 0,0
19.10.2018 13:00:00 5,9 3,1 5 3 22 12 W 1020,2 50 0,0
19.10.2018 12:00:00 5,0 3,3 10 6 22 12 W 1020,6 25 0,0
19.10.2018 11:00:00 4,4 3,2 11 6 20 11 WZW 1020,6 47 0,1
19.10.2018 10:00:00 3,9 3,0 9 5 23 12 ZZW 1020,9 5 0,2
19.10.2018 09:00:00 3,8 2,9 8 4 23 12 WZW 1020,6 15 0,0
19.10.2018 08:00:00 3,6 2,9 8 5 23 13 WZW 1020,5 14 0,0
19.10.2018 07:00:00 3,5 2,8 11 6 23 13 W 1020,3 11 0,3
19.10.2018 06:00:00 3,1 2,5 12 7 22 12 WZW 1020,7 4,3 0,3
19.10.2018 05:00:00 2,9 2,0 9 5 42 23 WZW 1021,1 6 0,3
19.10.2018 04:00:00 3,6 1,3 13 7 42 23 W 1020,8 50 0,0
19.10.2018 03:00:00 3,0 1,4 18 10 34 18 W 1020,4 50 0,0
19.10.2018 02:00:00 2,9 1,0 19 11 35 19 W 1020,3 21 0,0
19.10.2018 01:00:00 2,7 1,4 15 8 40 21 WZW 1020,7 21 0,2
19.10.2018 00:00:00 2,7 1,1 13 7 42 23 W 1020,6 11 0,0
18.10.2018 23:00:00 3,0 1,0 16 9 42 23 W 1019,9 26 0,2
18.10.2018 22:00:00 2,9 1,0 16 8 43 23 WZW 1019,7 25 0,0
18.10.2018 21:00:00 2,8 1,0 15 8 43 23 WZW 1019,5 45 0,1
18.10.2018 20:00:00 2,8 1,2 16 9 49 26 W 1019,2 17 0,2
18.10.2018 19:00:00 3,3 0,2 10 5 49 26 WZW 1018,8 50 0,0
18.10.2018 18:00:00 3,6 0,1 20 11 52 28 W 1018,1 27 0,0
18.10.2018 17:00:00 4,0 0,3 22 12 53 29 W 1017,5 22 0,0
18.10.2018 16:00:00 4,5 0,3 26 14 55 30 W 1016,6 50 0,0
18.10.2018 15:00:00 4,0 1,2 28 15 55 30 W 1016,3 15 0,0
18.10.2018 14:00:00 4,5 0,6 24 13 53 29 W 1015,8 41 0,0
18.10.2018 13:00:00 4,5 0,1 25 13 49 26 W 1015,6 35 0,0
18.10.2018 12:00:00 4,1 0,1 21 11 49 26 W 1015,5 44 0,0
18.10.2018 11:00:00 3,6 -0,1 22 12 46 25 WZW 1015,1 40 0,0
18.10.2018 10:00:00 4,5 -0,9 21 11 46 25 W 1014,7 50 0,0
18.10.2018 09:00:00 3,1 -0,2 16 9 46 25 W 1014,8 39 0,1
18.10.2018 08:00:00 3,2 0,6 18 10 40 22 W 1014,1 18 0,0
18.10.2018 07:00:00 3,6 1,6 10 5 15 8 W 1013,4 23 0,1
18.10.2018 06:00:00 4,2 1,7 6 4 15 8 WZW 1013,1 50 0,0
18.10.2018 05:00:00 3,8 2,0 7 4 13 7 ZZW 1013,2 50 0,0
18.10.2018 04:00:00 4,1 2,0 9 5 16 9 Z 1013,0 50 0,0
18.10.2018 03:00:00 4,5 2,0 9 5 16 9 WZW 1013,2 50 0,0
18.10.2018 02:00:00 4,5 2,4 6 3 15 8 ZW 1013,2 50 0,0
18.10.2018 01:00:00 4,0 2,5 5 3 15 8 W 1013,4 50 0,0
18.10.2018 00:00:00 4,1 3,2 6 3 23 12 WNW 1013,2 50 0,0

tt = temperatuur
td = dauwpunt
ff = windsnelheid
fx = windstoten
dd = windrichting
ppp = luchtdruk
vv = zicht
rr = neerslag

Weerstations in de omgeving